Weather History for KDAL - May, 2013

Change the Weather History Date:

Monday, May 6, 2013

  Actual Average Record
Temperature  
Mean Temperature 65 °F -  
Max Temperature 79 °F 80 °F 99 °F (1998)
Min Temperature 51 °F 61 °F 51 °F (2013)
Growing Degree Days 15 (Base 50)    
Moisture  
Dew Point 48 °F    
Average Humidity 55    
Maximum Humidity 83    
Minimum Humidity 34    
Precipitation  
Precipitation 0.00 in - - ()
Sea Level Pressure  
Sea Level Pressure 30.05 in    
Wind  
Wind Speed 3 mph (NW)    
Max Wind Speed 9 mph    
Max Gust Speed -    
Visibility 10 miles    
Events      
Averages and records for this station are not official NWS values.
T = Trace of Precipitation, MM = Missing Value Source: NWS Daily Summary

Daily Weather History Graph

Daily Weather History Graph

Search for Another Location

Airport or City:

Trip Planner

Search our weather history database for the weather conditions in past years. The results will help you decide how hot, cold, wet, or windy it might be!

Date:

Astronomy

May. 06, 2013 Rise Set
Actual Time 6:35 AM CDT 8:13 PM CDT
Civil Twilight 6:08 AM CDT 8:39 PM CDT
Nautical Twilight 5:36 AM CDT 9:11 PM CDT
Astronomical Twilight 5:03 AM CDT 9:45 PM CDT
Moon 4:27 AM CDT (5/6) 5:22 PM CDT (5/6)
Length of Visible Light 14h 31m
Length of Day
13h 38m
Waning Crescent, 11% of the Moon is Illuminated
May 6
Waning Crescent
May 9
New
May 17
First Quarter
May 24
Full
May 31
Last Quarter

Hourly Weather History & Observations

Time (CDT) Temp. Dew Point Humidity Pressure Visibility Wind Dir Wind Speed Gust Speed Precip Events Conditions
12:53 AM 57.9 °F 46.0 °F 65% 30.09 in 10.0 mi Calm Calm - N/A   Clear
1:53 AM 55.0 °F 46.0 °F 72% 30.08 in 10.0 mi Calm Calm - N/A   Clear
2:53 AM 54.0 °F 46.0 °F 75% 30.07 in 10.0 mi Calm Calm - N/A   Partly Cloudy
3:53 AM 52.0 °F 45.0 °F 77% 30.07 in 10.0 mi Calm Calm - N/A   Clear
4:53 AM 52.0 °F 45.0 °F 77% 30.07 in 10.0 mi Calm Calm - N/A   Clear
5:53 AM 53.1 °F 46.0 °F 77% 30.08 in 10.0 mi Calm Calm - N/A   Clear
6:53 AM 51.1 °F 46.0 °F 83% 30.09 in 10.0 mi Calm Calm - N/A   Scattered Clouds
7:53 AM 57.0 °F 48.0 °F 72% 30.10 in 10.0 mi North 3.5 mph - N/A   Scattered Clouds
8:53 AM 61.0 °F 48.0 °F 62% 30.12 in 10.0 mi NW 4.6 mph - N/A   Scattered Clouds
9:53 AM 66.0 °F 48.0 °F 52% 30.11 in 10.0 mi Variable 3.5 mph - N/A   Mostly Cloudy
10:53 AM 69.1 °F 48.9 °F 49% 30.12 in 10.0 mi NW 5.8 mph - N/A   Mostly Cloudy
11:53 AM 70.0 °F 48.9 °F 47% 30.11 in 10.0 mi NW 9.2 mph - N/A   Mostly Cloudy
12:53 PM 73.9 °F 48.0 °F 40% 30.08 in 10.0 mi North 9.2 mph - N/A   Mostly Cloudy
1:53 PM 75.9 °F 48.0 °F 37% 30.05 in 10.0 mi North 8.1 mph - N/A   Overcast
2:53 PM 77.0 °F 50.0 °F 39% 30.02 in 10.0 mi NNW 5.8 mph - N/A   Mostly Cloudy
3:53 PM 79.0 °F 50.0 °F 36% 30.00 in 10.0 mi Variable 6.9 mph - N/A   Mostly Cloudy
4:53 PM 79.0 °F 51.1 °F 38% 29.99 in 10.0 mi NW 6.9 mph - N/A   Mostly Cloudy
5:53 PM 77.0 °F 48.0 °F 36% 29.99 in 10.0 mi NW 5.8 mph - N/A   Mostly Cloudy
6:53 PM 77.0 °F 46.9 °F 34% 29.99 in 10.0 mi West 5.8 mph - N/A   Overcast
7:53 PM 75.0 °F 48.9 °F 40% 29.99 in 10.0 mi NNW 5.8 mph - N/A   Overcast
8:53 PM 73.0 °F 50.0 °F 44% 30.00 in 10.0 mi West 3.5 mph - N/A   Overcast
9:53 PM 72.0 °F 50.0 °F 46% 30.01 in 10.0 mi SW 3.5 mph - N/A   Overcast
10:53 PM 71.1 °F 51.1 °F 49% 30.01 in 10.0 mi Calm Calm - N/A   Overcast
11:53 PM 64.9 °F 54.0 °F 68% 30.01 in 10.0 mi ENE 3.5 mph - N/A   Mostly Cloudy